User: anonymous
Location: Bergen
(60.3910°N, 5.3250°E)
Time: 13:50:43
(UTC+02:00)
Language:

Cosmos 1943 - Orbit

View from above orbital plane
View from above orbital plane
View from above satellite
View from above satellite

Ground track
Ground track

The orbit data is extracted from the following two-line orbital elements,

1 19119U 88039A   14271.90051483  .00000259  00000-0  15829-3 0  2597
2 19119 071.0056 025.4010 0009760 133.1539 357.5325 14.14943705361728
Epoch (UTC): 28 September 2014 21:36:44
Eccentricity: 0.0009760
inclination: 71.0056°
perigee height: 835 km
apogee height: 849 km
right ascension of ascending node: 25.4010°
argument of perigee: 133.1539°
revolutions per day: 14.14943705
mean anomaly at epoch: 357.5325°
orbit number at epoch: 36172

The dashed part of the orbit path shows where the satellite is in the earth's shadow,  

DLR